Total_Precipitation_Accumulation
0.34 0.32 0.41 0.63 0.73 0.72 0.72 0.78 1.03 1.06 0.97 0.93 0.92 0.91 0.87 0.88 0.86 0.77 0.71 0.72 0.76 0.82 0.84 0.82 0.80 0.88 0.94 1.02 1.16 1.32 1.47 1.47 1.35 1.17 1.04 0.98 0.94 0.86 0.83 0.83 0.85 0.92 0.96 0.97
0.25 0.22 0.30 0.46 0.56 0.57 0.55 0.56 0.64 0.72 0.74 0.64 0.60 0.63 0.63 0.66 0.62 0.57 0.51 0.47 0.46 0.48 0.48 0.47 0.45 0.45 0.48 0.59 0.76 1.01 1.28 1.28 1.11 0.96 0.81 0.76 0.79 0.82 0.82 0.79 0.83 0.87 0.83 0.85
0.37 0.29 0.30 0.51 0.52 0.48 0.48 0.41 0.43 0.49 0.50 0.45 0.48 0.54 0.55 0.60 0.62 0.49 0.39 0.37 0.35 0.33 0.33 0.33 0.34 0.34 0.37 0.45 0.58 0.76 0.89 0.89 0.81 0.74 0.71 0.76 0.80 0.76 0.77 0.78 0.78 0.80 0.78 0.77
0.39 0.40 0.63 0.79 0.66 0.56 0.52 0.34 0.28 0.29 0.31 0.35 0.46 0.48 0.49 0.48 0.48 0.47 0.36 0.28 0.27 0.26 0.26 0.31 0.32 0.36 0.41 0.48 0.54 0.58 0.61 0.64 0.61 0.61 0.63 0.70 0.73 0.71 0.78 0.82 0.77 0.77 0.82 0.81
0.48 0.55 0.72 0.74 0.62 0.62 0.61 0.47 0.27 0.23 0.24 0.24 0.24 0.26 0.28 0.29 0.28 0.27 0.23 0.20 0.18 0.18 0.18 0.21 0.21 0.23 0.26 0.29 0.31 0.33 0.33 0.35 0.38 0.41 0.44 0.47 0.49 0.56 0.68 0.73 0.75 0.79 0.84 0.85
0.51 0.61 0.73 0.58 0.36 0.36 0.52 0.65 0.26 0.18 0.18 0.16 0.15 0.22 0.23 0.23 0.23 0.20 0.17 0.19 0.18 0.15 0.16 0.18 0.19 0.19 0.18 0.20 0.21 0.22 0.22 0.24 0.27 0.30 0.32 0.34 0.40 0.45 0.52 0.53 0.58 0.68 0.69 0.70
0.47 0.66 0.83 0.60 0.38 0.34 0.60 0.65 0.23 0.15 0.15 0.15 0.17 0.17 0.17 0.19 0.20 0.18 0.16 0.17 0.19 0.18 0.17 0.19 0.21 0.21 0.21 0.22 0.23 0.26 0.28 0.30 0.30 0.29 0.30 0.34 0.39 0.42 0.45 0.49 0.56 0.60 0.63 0.65
0.57 0.88 1.04 0.77 0.54 0.52 0.46 0.24 0.15 0.11 0.12 0.14 0.15 0.14 0.15 0.17 0.18 0.16 0.15 0.16 0.17 0.18 0.20 0.22 0.21 0.21 0.22 0.22 0.24 0.28 0.30 0.31 0.32 0.32 0.33 0.36 0.40 0.45 0.48 0.51 0.53 0.57 0.60 0.63
0.53 0.77 0.77 0.64 0.51 0.39 0.31 0.20 0.12 0.10 0.12 0.16 0.17 0.17 0.19 0.20 0.18 0.17 0.17 0.15 0.15 0.16 0.16 0.18 0.19 0.19 0.19 0.23 0.25 0.28 0.30 0.31 0.34 0.34 0.34 0.32 0.38 0.44 0.48 0.50 0.53 0.56 0.60 0.66
0.30 0.38 0.36 0.34 0.32 0.23 0.19 0.16 0.12 0.12 0.16 0.20 0.22 0.21 0.19 0.20 0.20 0.18 0.17 0.15 0.14 0.15 0.17 0.18 0.20 0.20 0.23 0.24 0.23 0.25 0.30 0.33 0.35 0.35 0.36 0.36 0.38 0.43 0.47 0.52 0.55 0.57 0.61 0.66
0.27 0.26 0.22 0.21 0.21 0.19 0.14 0.11 0.10 0.13 0.18 0.21 0.22 0.22 0.20 0.19 0.21 0.20 0.18 0.18 0.19 0.20 0.19 0.20 0.22 0.24 0.28 0.30 0.28 0.26 0.29 0.31 0.32 0.34 0.38 0.39 0.40 0.42 0.45 0.49 0.59 0.65 0.66 0.69
0.27 0.20 0.22 0.23 0.20 0.16 0.14 0.11 0.10 0.10 0.13 0.17 0.19 0.21 0.20 0.18 0.20 0.22 0.22 0.22 0.23 0.24 0.24 0.24 0.24 0.26 0.29 0.33 0.36 0.35 0.34 0.32 0.31 0.33 0.36 0.38 0.39 0.39 0.42 0.45 0.54 0.57 0.55 0.56
0.19 0.16 0.15 0.16 0.16 0.15 0.12 0.11 0.10 0.11 0.12 0.14 0.15 0.18 0.21 0.20 0.19 0.21 0.22 0.23 0.24 0.26 0.26 0.25 0.24 0.23 0.23 0.27 0.31 0.33 0.35 0.37 0.36 0.37 0.37 0.39 0.39 0.37 0.41 0.41 0.43 0.45 0.45 0.48
0.12 0.13 0.14 0.12 0.12 0.12 0.12 0.11 0.11 0.10 0.11 0.12 0.14 0.16 0.17 0.18 0.17 0.17 0.20 0.23 0.24 0.25 0.24 0.25 0.24 0.24 0.23 0.24 0.28 0.32 0.34 0.37 0.40 0.41 0.41 0.42 0.45 0.48 0.48 0.50 0.50 0.45 0.41 0.43
0.11 0.11 0.12 0.12 0.12 0.11 0.12 0.12 0.12 0.12 0.13 0.15 0.16 0.18 0.18 0.17 0.18 0.18 0.20 0.22 0.23 0.23 0.25 0.27 0.25 0.24 0.25 0.26 0.27 0.28 0.31 0.36 0.40 0.45 0.50 0.48 0.50 0.56 0.57 0.50 0.46 0.46 0.44 0.44
0.13 0.12 0.13 0.14 0.15 0.14 0.12 0.12 0.13 0.13 0.13 0.14 0.18 0.22 0.23 0.21 0.20 0.18 0.20 0.21 0.23 0.24 0.27 0.29 0.29 0.29 0.27 0.26 0.26 0.25 0.27 0.35 0.40 0.42 0.46 0.47 0.48 0.53 0.54 0.53 0.51 0.53 0.54 0.56
0.15 0.15 0.16 0.18 0.18 0.16 0.14 0.14 0.15 0.16 0.17 0.18 0.20 0.22 0.24 0.23 0.22 0.22 0.21 0.22 0.23 0.26 0.28 0.31 0.31 0.32 0.32 0.28 0.28 0.29 0.29 0.32 0.37 0.41 0.43 0.45 0.46 0.50 0.53 0.53 0.54 0.56 0.56 0.62
0.17 0.17 0.17 0.19 0.20 0.18 0.15 0.14 0.15 0.17 0.20 0.22 0.24 0.25 0.27 0.28 0.29 0.28 0.27 0.26 0.26 0.30 0.34 0.36 0.35 0.33 0.31 0.29 0.31 0.33 0.32 0.33 0.35 0.41 0.43 0.46 0.50 0.53 0.58 0.56 0.54 0.55 0.56 0.60
0.22 0.21 0.20 0.20 0.21 0.20 0.19 0.17 0.17 0.19 0.21 0.21 0.23 0.26 0.27 0.27 0.28 0.28 0.28 0.29 0.30 0.33 0.35 0.35 0.36 0.31 0.30 0.32 0.36 0.38 0.39 0.39 0.41 0.43 0.46 0.49 0.52 0.55 0.58 0.57 0.55 0.56 0.58 0.60
0.24 0.22 0.21 0.21 0.20 0.20 0.21 0.19 0.19 0.21 0.23 0.23 0.23 0.23 0.24 0.23 0.24 0.26 0.28 0.31 0.32 0.33 0.31 0.33 0.33 0.33 0.35 0.36 0.39 0.40 0.43 0.47 0.51 0.54 0.56 0.57 0.58 0.61 0.63 0.60 0.60 0.62 0.63 0.63
0.20 0.19 0.20 0.21 0.21 0.21 0.21 0.20 0.20 0.21 0.21 0.23 0.23 0.24 0.25 0.23 0.22 0.24 0.28 0.34 0.34 0.31 0.28 0.32 0.29 0.29 0.34 0.40 0.44 0.44 0.46 0.50 0.53 0.55 0.56 0.58 0.60 0.61 0.64 0.62 0.62 0.65 0.66 0.65
0.20 0.18 0.17 0.17 0.17 0.18 0.20 0.19 0.18 0.18 0.19 0.21 0.23 0.24 0.25 0.26 0.25 0.27 0.30 0.34 0.36 0.38 0.32 0.29 0.28 0.32 0.40 0.45 0.40 0.41 0.44 0.48 0.51 0.55 0.58 0.59 0.61 0.62 0.65 0.66 0.67 0.67 0.68 0.71
0.24 0.21 0.19 0.19 0.18 0.18 0.21 0.22 0.19 0.19 0.21 0.21 0.22 0.24 0.28 0.33 0.34 0.35 0.35 0.32 0.32 0.39 0.36 0.33 0.36 0.42 0.50 0.43 0.38 0.40 0.42 0.45 0.46 0.50 0.56 0.61 0.64 0.65 0.67 0.66 0.66 0.67 0.69 0.73
0.26 0.24 0.22 0.22 0.22 0.24 0.26 0.25 0.24 0.23 0.25 0.26 0.25 0.24 0.26 0.31 0.35 0.35 0.36 0.39 0.41 0.42 0.37 0.39 0.45 0.50 0.52 0.43 0.41 0.42 0.44 0.46 0.46 0.47 0.50 0.54 0.59 0.62 0.64 0.67 0.69 0.70 0.69 0.69
0.27 0.25 0.24 0.24 0.27 0.30 0.28 0.27 0.27 0.25 0.27 0.30 0.30 0.27 0.26 0.28 0.35 0.37 0.35 0.36 0.43 0.46 0.41 0.44 0.50 0.52 0.47 0.45 0.45 0.46 0.48 0.51 0.53 0.53 0.51 0.52 0.57 0.62 0.67 0.69 0.73 0.76 0.76 0.74
0.29 0.27 0.29 0.32 0.34 0.32 0.31 0.33 0.31 0.28 0.27 0.29 0.29 0.27 0.27 0.27 0.29 0.31 0.31 0.33 0.37 0.46 0.50 0.50 0.48 0.49 0.49 0.52 0.52 0.52 0.51 0.52 0.53 0.53 0.52 0.56 0.61 0.66 0.72 0.76 0.77 0.81 0.80 0.76
0.31 0.31 0.32 0.32 0.31 0.31 0.33 0.36 0.35 0.32 0.30 0.31 0.31 0.29 0.29 0.32 0.33 0.35 0.36 0.39 0.42 0.45 0.52 0.58 0.56 0.57 0.59 0.58 0.58 0.58 0.58 0.58 0.59 0.60 0.60 0.62 0.66 0.68 0.72 0.77 0.81 0.86 0.87 0.85